Location: ????
(32.1228°N, 34.8377°E)
Time: 01:25:15
(UTC+00:00)

deb Chang Zheng 4 - Pass Details

Date: 21 September 2020
Orbit: 602 x 626 km, 98.6° (Epoch: 21 October)

Event Time Altitude Azimuth Distance (km) Brightness Sun altitude
Rises 02:10:48 0° 10° (N) 2,880 7.3 -17.1°
Reaches altitude 10° 02:12:59 10° 8° (N) 1,968 6.4 -16.7°
Maximum altitude 02:17:15 74° 285° (WNW) 636 3.4 -15.8°
Drops below altitude 10° 02:21:27 10° 200° (SSW) 1,944 5.8 -14.9°
Enters shadow 02:23:06 - 198° (SSW) 2,628 6.5 -14.6°
